Flag for U.S.A. Weather past 2 weeks in Grand Rapids, Michigan, U.S.A.

Now
76 °F

Overcast.


Feels Like: 77 °F
Forecast: 70 / 83 °F
Wind: 7 mph from Southwest

Location: Kent County International Airport

Current Time: Jul 29, 2015 at 9:47:45 AM

Latest Report: Jul 29, 2015 at 8:53 AM


Visibility: 8 mi

Pressure: 29.92 "Hg

Humidity: 80%

Dew point: 69 °F

Location of Grand RapidsLocation

Historic Weather in Grand Rapids — Graph

°F

Grand Rapids temperature yesterday

Maximum temperature yesterday: 89 °F (at 5:53 PM)
Minimum temperature yesterday: 65 °F (at 6:53 AM)
Average temperature yesterday: 78 °F

Past Weeks' High & Low Weather Summary

 TemperatureHumidityPressure
High89 °F (Jul 28, 5:53 PM)97% (Jul 17, 2:53 AM)30.08 "Hg (Jul 17, 2:53 AM)
Low53 °F (Jul 16, 5:53 AM)33% (Jul 21, 3:53 PM)29.51 "Hg (Jul 14, 8:53 AM)
Average73 °F69%29.91 "Hg
* Reported Jul 14 8:53 AM — Jul 29 8:53 AM, Grand Rapids, Weather by CustomWeather, © 2015

Note: Actual official high and low records may vary slightly from our data, if they occured in-between our weather recording intervals... More about our weather records

Advertising

Grand Rapids weather history for previous 24 hours

 ConditionsComfort  
Time TempWeatherWind HumidityBarometerVisibility
8:53 AM
Wed, Jul 29
76 °FOvercast.7 mph80%29.92 "Hg8 mi
7:53 AM75 °FMore clouds than sun.8 mph74%29.92 "Hg10 mi
6:53 AM73 °FOvercast.7 mph76%29.91 "Hg10 mi
5:53 AM73 °FOvercast.6 mph74%29.91 "Hg10 mi
4:53 AM74 °FPartly cloudy.5 mph74%29.91 "Hg10 mi
3:53 AM73 °FPassing clouds.6 mph76%29.90 "Hg10 mi
2:53 AM74 °FPassing clouds.5 mph76%29.93 "Hg10 mi
1:53 AM74 °FClear.6 mph76%29.96 "Hg10 mi
12:53 AM74 °FClear.5 mph76%29.96 "Hg10 mi
11:53 PM
Tue, Jul 28
75 °FPassing clouds.5 mph74%29.96 "Hg10 mi
10:53 PM76 °FPassing clouds.6 mph74%29.97 "Hg10 mi
9:53 PM77 °FScattered clouds.3 mph71%29.95 "Hg10 mi
8:53 PM82 °FPartly sunny.3 mph58%29.94 "Hg10 mi
7:53 PM84 °FPartly sunny.3 mph53%29.93 "Hg10 mi
6:53 PM85 °FPartly sunny.9 mph48%29.91 "Hg10 mi
5:53 PM89 °FPartly sunny.9 mph41%29.94 "Hg10 mi
4:53 PM88 °FPartly sunny.10 mph40%29.96 "Hg10 mi
3:53 PM88 °FPartly sunny.8 mph38%29.98 "Hg10 mi
2:53 PM88 °FPartly sunny.7 mph38%29.99 "Hg10 mi
1:53 PM87 °FPartly sunny.8 mph37%30.00 "Hg10 mi
12:53 PM86 °FPartly sunny.9 mph42%30.02 "Hg10 mi
11:53 AM85 °FScattered clouds.13 mph45%30.03 "Hg9 mi
10:53 AM83 °FPassing clouds.10 mph53%30.01 "Hg10 mi
9:53 AM80 °FPassing clouds.7 mph56%30.03 "Hg10 mi
Weather by CustomWeather, © 2015

See weather overviewHow to use our weather pages